• Currently

    Reported at Covington / Cincinnati, Cincinnati / Northern Kentucky International Airport, KY
    11:52 AM EST SAT MAY 27 2017
  • 77°F25°C
  • Mostly Cloudy
    Mostly Cloudy
  • Feels Like:79°F26°CDew Point:68°F20°CHumidity:74% Winds:SW 8 mph 13 kph
    Pressure:29.88 in1012 hPaVisibility:7.00 miles11263.00 meters
Time Weather Temp Dew Point
Humidity Winds Visibility Pressure Precipitation
1 hr 24 hr
Saturday, May 27
13:14 13:14 Mostly Cloudy Mostly Cloudy 79°F26°C 66°F19°C 65% SSW 6 mphSSW 9 kph 10.0 miles16.1 km 29.91 in1013 hPa 0.00 in0.00 mm --
12:53 12:53 Cloudy Cloudy 79°F26°C 68°F20°C 70% SSW 8 mphSSW 13 kph 10.0 miles16.1 km 29.91 in1013 hPa 0.00 in0.00 mm --
12:33 12:33 Mostly Cloudy Mostly Cloudy 77°F25°C 68°F20°C 74% SSW 8 mphSSW 13 kph 10.0 miles16.1 km 29.91 in1013 hPa 0.00 in0.00 mm --
12:14 12:14 Mostly Cloudy Mostly Cloudy 77°F25°C 68°F20°C 74% SW 7 mphSW 11 kph 10.0 miles16.1 km 29.91 in1013 hPa 0.00 in0.00 mm --
11:53 11:53 Cloudy Cloudy 75°F24°C 68°F20°C 78% SW 8 mphSW 13 kph 10.0 miles16.1 km 29.91 in1013 hPa 0.00 in0.00 mm --
11:33 11:33 Mostly Cloudy Mostly Cloudy 77°F25°C 68°F20°C 74% S 5 mphS 7 kph 7.0 miles11.3 km 29.91 in1013 hPa 0.00 in0.00 mm --
11:14 11:14 Cloudy Cloudy 73°F23°C 68°F20°C 83% SSW 3 mphSSW 6 kph 7.0 miles11.3 km 29.91 in1013 hPa 0.00 in0.00 mm --
10:53 10:53 Cloudy Cloudy 73°F23°C 66°F19°C 78% SW 6 mphSW 9 kph 7.0 miles11.3 km 29.91 in1013 hPa 0.00 in0.00 mm --
10:33 10:33 Cloudy Cloudy 72°F22°C 66°F19°C 83% SSW 5 mphSSW 7 kph 7.0 miles11.3 km 29.91 in1013 hPa 0.00 in0.00 mm --
10:14 10:14 Cloudy Cloudy 72°F22°C 66°F19°C 83% CalmCalm 7.0 miles11.3 km 29.91 in1013 hPa 0.00 in0.00 mm --
09:53 09:53 Cloudy Cloudy 72°F22°C 66°F19°C 83% SW 5 mphSW 7 kph 7.0 miles11.3 km 29.91 in1013 hPa 0.00 in0.00 mm --
09:33 09:33 Cloudy Cloudy 72°F22°C 66°F19°C 83% S 3 mphS 6 kph 7.0 miles11.3 km 29.91 in1013 hPa 0.00 in0.00 mm --
09:14 09:14 Cloudy Cloudy 72°F22°C 66°F19°C 83% SSW 3 mphSSW 6 kph 7.0 miles11.3 km 29.91 in1013 hPa 0.00 in0.00 mm --
08:53 08:53 Cloudy Cloudy 72°F22°C 66°F19°C 83% SW 6 mphSW 9 kph 7.0 miles11.3 km 29.91 in1013 hPa 0.00 in0.00 mm --
08:34 08:34 Cloudy Cloudy 72°F22°C 66°F19°C 83% WSW 6 mphWSW 9 kph 7.0 miles11.3 km 29.91 in1013 hPa 0.00 in0.00 mm --
08:13 08:13 Cloudy Cloudy 70°F21°C 66°F19°C 88% SW 5 mphSW 7 kph 7.0 miles11.3 km 29.91 in1013 hPa 0.00 in0.00 mm --
07:53 07:53 Cloudy Cloudy 70°F21°C 66°F19°C 88% WSW 3 mphWSW 6 kph 7.0 miles11.3 km 29.88 in1012 hPa 0.00 in0.00 mm --
07:34 07:34 Cloudy Cloudy 70°F21°C 66°F19°C 88% SW 3 mphSW 6 kph 7.0 miles11.3 km 29.88 in1012 hPa 0.00 in0.00 mm --
07:13 07:13 Cloudy Cloudy 70°F21°C 66°F19°C 88% SW 5 mphSW 7 kph 7.0 miles11.3 km 29.88 in1012 hPa 0.00 in0.00 mm --
06:53 06:53 Cloudy Cloudy 70°F21°C 64°F18°C 83% WSW 5 mphWSW 7 kph 10.0 miles16.1 km 29.88 in1012 hPa 0.00 in0.00 mm --
06:34 06:34 Cloudy Cloudy 70°F21°C 64°F18°C 83% SW 3 mphSW 6 kph 10.0 miles16.1 km 29.88 in1012 hPa 0.00 in0.00 mm --
06:13 06:13 Cloudy Cloudy 70°F21°C 64°F18°C 83% WSW 3 mphWSW 6 kph 10.0 miles16.1 km 29.88 in1012 hPa 0.00 in0.00 mm --
05:53 05:53 Cloudy Cloudy 70°F21°C 64°F18°C 83% WSW 3 mphWSW 6 kph 10.0 miles16.1 km 29.88 in1012 hPa 0.00 in0.00 mm --
05:34 05:34 Cloudy Cloudy 70°F21°C 64°F18°C 83% SW 5 mphSW 7 kph 10.0 miles16.1 km 29.88 in1012 hPa 0.00 in0.00 mm --
05:13 05:13 Cloudy Cloudy 70°F21°C 64°F18°C 83% WSW 3 mphWSW 6 kph 10.0 miles16.1 km 29.88 in1012 hPa 0.00 in0.00 mm --
04:53 04:53 Cloudy Cloudy 70°F21°C 64°F18°C 83% WSW 5 mphWSW 7 kph 10.0 miles16.1 km 29.88 in1012 hPa 0.00 in0.00 mm --
04:34 04:34 Cloudy Cloudy 72°F22°C 64°F18°C 78% WSW 6 mphWSW 9 kph 10.0 miles16.1 km 29.85 in1011 hPa 0.00 in0.00 mm --
04:13 04:13 Cloudy Cloudy 72°F22°C 63°F17°C 73% WSW 7 mphWSW 11 kph 10.0 miles16.1 km 29.85 in1011 hPa 0.00 in0.00 mm --
03:53 03:53 Cloudy Cloudy 72°F22°C 63°F17°C 73% WSW 6 mphWSW 9 kph 10.0 miles16.1 km 29.85 in1011 hPa 0.00 in0.00 mm --
03:34 03:34 Cloudy Cloudy 72°F22°C 63°F17°C 73% WSW 8 mphWSW 13 kph 10.0 miles16.1 km 29.85 in1011 hPa 0.00 in0.00 mm --
03:13 03:13 Cloudy Cloudy 72°F22°C 63°F17°C 73% WSW 9 mphWSW 15 kph 10.0 miles16.1 km 29.85 in1011 hPa 0.00 in0.00 mm --
02:53 02:53 Cloudy Cloudy 72°F22°C 63°F17°C 73% WSW 8 mphWSW 13 kph 10.0 miles16.1 km 29.85 in1011 hPa 0.00 in0.00 mm --
02:34 02:34 Cloudy Cloudy 72°F22°C 63°F17°C 73% SW 7 mphSW 11 kph 10.0 miles16.1 km 29.85 in1011 hPa 0.00 in0.00 mm --
02:13 02:13 Cloudy Cloudy 72°F22°C 63°F17°C 73% SW 7 mphSW 11 kph 10.0 miles16.1 km 29.85 in1011 hPa 0.00 in0.00 mm --
01:53 01:53 Cloudy Cloudy 72°F22°C 63°F17°C 73% SW 7 mphSW 11 kph 10.0 miles16.1 km 29.85 in1011 hPa 0.00 in0.00 mm --
01:34 01:34 Cloudy Cloudy 72°F22°C 63°F17°C 73% SSW 6 mphSSW 9 kph 10.0 miles16.1 km 29.85 in1011 hPa 0.00 in0.00 mm --
01:13 01:13 Cloudy Cloudy 72°F22°C 63°F17°C 73% S 7 mphS 11 kph 10.0 miles16.1 km 29.85 in1011 hPa 0.00 in0.00 mm --
00:53 00:53 Cloudy Cloudy 72°F22°C 63°F17°C 73% S 6 mphS 9 kph 10.0 miles16.1 km 29.85 in1011 hPa 0.00 in0.00 mm --
00:33 00:33 Cloudy Cloudy 72°F22°C 63°F17°C 73% S 5 mphS 7 kph 10.0 miles16.1 km 29.85 in1011 hPa 0.00 in0.00 mm --
00:13 00:13 Cloudy Cloudy 72°F22°C 63°F17°C 73% S 6 mphS 9 kph 10.0 miles16.1 km 29.88 in1012 hPa 0.00 in0.00 mm --